Location: Dal�� Lhota
(48.7500°N, 14.0167°E)
Time: 23:53:56
(UTC+00:00)

Vanguard 3 - Pass Details

Date: 03 August 2021
Orbit: 510 x 3260 km, 33.3° (Epoch: 16 September)

Event Time Altitude Azimuth Distance (km) Brightness Sun altitude
Rises 19:57:35 0° 265° (W) 6,326 12.4 -11.4°
Reaches altitude 10° 20:01:41 10° 259° (W) 5,595 11.9 -11.8°
Maximum altitude 20:18:03 43° 197° (SSW) 4,064 10.4 -13.7°
Enters shadow 20:32:00 18° 140° (SE) 5,320 10.6 -15.2°
Drops below altitude 10° 20:35:14 10° 134° (SE) 5,836 - -15.5°
Sets 20:39:39 0° 128° (SE) 6,607 - -16.0°
